[[{"header":{"parameterUnit":"m.s-1","parameterCategory":1,"la1":30.2991,"la2":30.254,"lo1":-89.0895,"lo2":-89.0444,"dy":0.0017,"dx":0.0017,"nx":28,"ny":28,"refTime":"2025-08-12T21:00:00:Z","depth":0,"parameterNumber":2,"parameterNumberName":"U-component_of_WINDS"},"data":[0,0,0,0,0,0,0,0,0,0,0,0,0,0,0,0,0,0,0,0,0,0,0,0,0,0,0,0,0,0,0,0,0,0,0,0,0,0,0,0,0,0,0,0,0,0,0,0,0,0,0,0,0,0,0,0,0,0,2.7564,2.7564,0,2.7637,2.7638,2.7639,2.765,2.765,2.7649,2.7648,2.7727,2.773,2.7733,0,0,0,0,0,0,0,0,0,0,0,0,0,2.7436,2.7438,2.7564,2.7564,2.7565,2.7637,2.7638,2.7639,2.765,2.765,2.7649,2.7648,2.7727,2.773,2.7733,0,0,0,0,0,0,0,0,0,0,0,0,0,2.7499,2.7439,2.7563,2.758,2.7582,2.7637,2.7638,2.7639,2.7651,2.765,2.7649,2.7648,2.7725,2.7729,2.7733,2.7779,0,0,2.7746,2.7748,0,0,0,0,0,0,0,0,2.7495,2.7503,2.7576,2.7579,2.7581,2.7634,2.7622,2.7686,2.7651,2.7625,2.7648,2.7647,2.7697,2.7704,2.772,2.7782,2.7786,2.7746,2.7749,2.7751,2.7752,0,0,0,0,0,0,0,2.7491,2.75,2.7593,2.7577,2.758,2.7584,2.7592,2.7634,2.7666,2.7627,2.7628,2.7636,2.7698,2.7716,2.7722,2.7787,2.7746,2.775,2.7752,2.7754,2.7891,2.7892,0,0,0,0,0,0,2.7483,2.7496,2.759,2.7595,2.7535,2.7587,2.7596,2.7618,2.7665,2.7671,2.7637,2.7636,2.7709,2.7717,2.7724,2.778,2.7751,2.7754,2.7757,2.7889,2.7891,2.7892,0,0,0,0,0,0,2.748,2.7491,2.7588,2.7546,2.7559,2.7591,2.7615,2.762,2.7637,2.7673,2.7679,2.7649,2.7709,2.7719,2.7765,2.7783,2.7756,2.776,2.7888,2.789,2.7891,2.7892,0,0,0,0,0,0,2.7476,2.749,2.7507,2.7546,2.7561,2.7626,2.7616,2.7622,2.7644,2.7644,2.7685,2.7692,2.7709,2.7759,2.7769,2.7788,2.7763,2.7886,2.7889,2.7891,2.789,2.7893,2.7896,0,0,0,0,0,2.7472,2.7505,2.7508,2.7519,2.7582,2.7627,2.7635,2.7653,2.7645,2.7663,2.7686,2.769,2.778,2.7763,2.7775,2.7796,2.7885,2.7888,2.7891,2.7889,2.7893,2.7896,0,0,0,0,0,0,2.7468,2.751,2.7514,2.756,2.759,2.7628,2.7651,2.7657,2.769,2.7688,2.7711,2.772,2.7765,2.7785,2.7766,2.7842,2.7832,2.7837,2.7827,2.7831,2.7833,2.7827,2.7767,0,0,0,0,0,2.7472,2.7503,2.754,2.7577,2.7592,2.7619,2.7639,2.765,2.7682,2.7695,2.7721,2.7753,2.7788,2.7811,2.7845,2.7894,2.7903,2.7914,2.7917,2.7919,2.7923,2.795,2.7955,2.7901,2.7901,2.7901,0,0,2.7482,2.7509,2.7528,2.7577,2.7601,2.7634,2.7629,2.7664,2.7689,2.7701,2.7745,2.7766,2.7802,2.785,2.7872,2.7868,2.794,2.7922,2.7924,2.7926,2.7953,2.7958,2.7963,2.7903,2.7902,2.7902,0,0,2.7516,2.7539,2.7573,2.7597,2.7633,2.7651,2.7659,2.7697,2.7711,2.7756,2.7765,2.7795,2.7856,2.7881,2.7902,2.7946,2.7951,2.7957,2.7971,2.7997,2.8002,2.8006,2.8021,2.8026,2.7961,2.7961,2.7961,0,2.7523,2.7572,2.759,2.7625,2.7646,2.7657,2.7692,2.7715,2.776,2.7776,2.777,2.7846,2.7871,2.7924,2.7935,2.7952,2.7962,2.7952,2.7999,2.8003,2.8007,2.8022,2.8028,2.7961,2.7961,2.7961,2.7961,0,2.7579,2.7613,2.7637,2.7679,2.7704,2.7738,2.7762,2.7785,2.7794,2.7813,2.7859,2.789,2.7931,2.7944,2.7955,2.7999,2.7996,2.7995,2.7985,2.8013,2.8027,2.8032,2.7962,2.7962,2.7961,2.7961,0,0,2.7612,2.7664,2.7672,2.7692,2.7732,2.7759,2.7795,2.7833,2.7852,2.7884,2.7914,2.7965,2.7964,2.7988,2.8001,2.8024,2.8056,2.8021,2.8022,2.8025,2.8107,2.8107,2.8113,2.806,2.8062,2.8063,2.8104,0,2.765,2.7712,2.773,2.7782,2.7814,2.7825,2.7856,2.7885,2.7903,2.7934,2.7955,2.799,2.7986,2.8001,2.8024,2.8047,2.8073,2.8045,2.8089,2.8091,2.8078,2.812,2.812,2.8158,2.8109,2.811,2.8111,0,2.7703,2.7734,2.779,2.7826,2.784,2.7867,2.7904,2.7933,2.7966,2.7978,2.8004,2.8015,2.8053,2.8042,2.8095,2.8075,2.8095,2.8109,2.8111,2.8115,2.8102,2.8125,2.817,2.8175,2.812,2.8119,2.8119,0,2.772,2.7777,2.7817,2.7833,2.7877,2.7896,2.7915,2.7947,2.7969,2.8002,2.8016,2.8054,2.8074,2.8103,2.8124,2.8114,2.8175,2.8165,2.8186,2.8185,2.8198,2.8197,2.8246,2.8212,2.8212,2.8212,2.8211,0,2.7761,2.7794,2.7825,2.785,2.7888,2.7908,2.7945,2.7965,2.7994,2.8023,2.8036,2.8063,2.809,2.8121,2.8138,2.8179,2.8189,2.82,2.8204,2.8198,2.8197,2.8211,2.8208,2.8213,2.8213,2.8212,2.8212,0,2.7786,2.7808,2.7853,2.789,2.7901,2.7927,2.7959,2.7984,2.8003,2.804,2.805,2.8081,2.8118,2.8142,2.819,2.8202,2.8246,2.825,2.8235,2.8236,2.8255,2.8253,2.8314,2.8323,2.8284,2.8284,2.8285,0,2.781,2.7836,2.7876,2.7896,2.7915,2.7947,2.7969,2.7991,2.8013,2.8053,2.8073,2.8111,2.8143,2.8202,2.8229,2.8266,2.827,2.8289,2.8276,2.8269,2.827,2.8267,2.827,2.8291,2.8292,2.8292,2.8292,0,2.785,2.7859,2.789,2.7925,2.7951,2.798,2.8009,2.8025,2.8051,2.8077,2.8114,2.8138,2.8187,2.8225,2.8264,2.8285,2.8293,2.8296,2.8303,2.8297,2.8286,2.8291,2.824,2.8294,2.8294,2.8294,2.8294,2.8294,2.7875,2.7898,2.7929,2.7963,2.7987,2.8014,2.8039,2.8061,2.8092,2.8132,2.8144,2.8183,2.8216,2.8269,2.8291,2.8323,2.832,2.833,2.8333,2.8334,2.8334,2.8282,2.833,2.833,2.833,2.833,2.833,0,2.7914,2.7935,2.7966,2.8006,2.8033,2.8037,2.8069,2.8092,2.8126,2.8155,2.8186,2.8229,2.8266,2.8295,2.8333,2.8353,2.8358,2.8362,2.836,2.8365,2.8334,2.8324,2.8358,2.8358,2.8358,2.8358,2.8358,2.8358,2.7938,2.7977,2.799,2.8042,2.8063,2.81,2.8118,2.8143,2.8167,2.8214,2.8244,2.8263,2.8293,2.8333,2.8367,2.8375,2.8388,2.8391,2.84,2.837,2.8367,2.8364,2.8355,2.8394,2.8394,2.8428,2.8428,2.8428]},{"header":{"parameterUnit":"m.s-1","parameterCategory":1,"la1":30.2991,"la2":30.254,"lo1":-89.0895,"lo2":-89.0444,"dy":0.0017,"dx":0.0017,"nx":28,"ny":28,"refTime":"2025-08-12T21:00:00:Z","depth":0,"parameterNumber":3,"parameterNumberName":"V-component_of_WINDS"},"data":[0,0,0,0,0,0,0,0,0,0,0,0,0,0,0,0,0,0,0,0,0,0,0,0,0,0,0,0,0,0,0,0,0,0,0,0,0,0,0,0,0,0,0,0,0,0,0,0,0,0,0,0,0,0,0,0,0,0,3.6014,3.6015,0,3.6138,3.6139,3.6141,3.6199,3.6199,3.6198,3.6198,3.6319,3.6322,3.6325,0,0,0,0,0,0,0,0,0,0,0,0,0,3.5821,3.5825,3.6014,3.6016,3.6017,3.6138,3.6139,3.6141,3.6199,3.6199,3.6198,3.6198,3.6318,3.6322,3.6326,0,0,0,0,0,0,0,0,0,0,0,0,0,3.5921,3.5826,3.6014,3.6061,3.6066,3.6137,3.6139,3.6141,3.6199,3.6199,3.6198,3.6198,3.6317,3.6321,3.6326,3.6358,0,0,3.6341,3.6343,0,0,0,0,0,0,0,0,3.5915,3.5928,3.6052,3.6058,3.6064,3.6153,3.6116,3.6214,3.6199,3.6148,3.6198,3.6198,3.6263,3.6273,3.6296,3.6364,3.6369,3.6342,3.6345,3.6347,3.6348,0,0,0,0,0,0,0,3.5908,3.5923,3.6063,3.6054,3.6061,3.6073,3.6087,3.6134,3.6204,3.6152,3.6157,3.6171,3.6266,3.6291,3.6299,3.6371,3.6342,3.6346,3.6349,3.6351,3.647,3.647,0,0,0,0,0,0,3.5894,3.5917,3.6059,3.6067,3.5988,3.6077,3.6093,3.6124,3.6204,3.6216,3.6171,3.6173,3.6283,3.6293,3.6304,3.6346,3.6347,3.6351,3.6354,3.647,3.647,3.647,0,0,0,0,0,0,3.589,3.5907,3.6054,3.5993,3.6013,3.608,3.6115,3.6127,3.6151,3.6218,3.6231,3.6184,3.6283,3.6297,3.6345,3.6351,3.6354,3.6358,3.647,3.647,3.647,3.6432,0,0,0,0,0,0,3.5884,3.5905,3.5919,3.5993,3.6016,3.6095,3.6116,3.6129,3.616,3.6165,3.6234,3.6245,3.6284,3.6337,3.6349,3.6358,3.6362,3.6469,3.647,3.647,3.6433,3.6431,3.6429,0,0,0,0,0,3.5877,3.5902,3.592,3.5937,3.6036,3.6095,3.6108,3.6154,3.6161,3.6175,3.6218,3.6243,3.6348,3.6341,3.6356,3.6366,3.6469,3.647,3.647,3.6433,3.6431,3.6429,0,0,0,0,0,0,3.5826,3.5913,3.5933,3.5984,3.6032,3.6105,3.6124,3.615,3.6196,3.6198,3.6251,3.6266,3.6309,3.6342,3.6333,3.64,3.6411,3.6414,3.6378,3.6376,3.6374,3.6365,3.6366,0,0,0,0,0,3.5821,3.5864,3.5937,3.5974,3.5997,3.6056,3.6084,3.6115,3.6167,3.6187,3.6233,3.628,3.6324,3.6352,3.6396,3.6437,3.6452,3.6451,3.6449,3.6447,3.645,3.6473,3.6473,3.6472,3.6472,3.6472,0,0,3.5811,3.5863,3.5887,3.5965,3.6006,3.6047,3.6073,3.6116,3.6146,3.6193,3.6242,3.6276,3.6332,3.6377,3.6399,3.6406,3.6453,3.6448,3.6446,3.645,3.6473,3.6473,3.6473,3.6472,3.6472,3.6472,0,0,3.5813,3.5857,3.5893,3.5934,3.5996,3.6035,3.6043,3.6112,3.6138,3.6188,3.6223,3.6259,3.6333,3.6372,3.6401,3.6415,3.644,3.6428,3.6418,3.644,3.644,3.6441,3.6445,3.6447,3.643,3.643,3.643,0,3.5791,3.5857,3.5907,3.5949,3.5981,3.6026,3.6061,3.6098,3.617,3.619,3.6197,3.6291,3.6332,3.6386,3.6389,3.6411,3.6421,3.6421,3.6437,3.6437,3.6438,3.6444,3.6445,3.6428,3.6428,3.6428,3.6428,0,3.5827,3.5872,3.5893,3.5964,3.5998,3.6036,3.609,3.6119,3.6146,3.6184,3.6232,3.6283,3.6338,3.6352,3.6379,3.6409,3.6412,3.6427,3.6438,3.6436,3.6442,3.6444,3.6425,3.6426,3.6426,3.6427,0,0,3.5803,3.59,3.5907,3.5939,3.601,3.6045,3.6083,3.6138,3.6161,3.6209,3.6242,3.6303,3.6318,3.635,3.6382,3.6401,3.6408,3.6414,3.6416,3.6411,3.6444,3.6432,3.6434,3.6424,3.6425,3.6426,3.6439,0,3.5815,3.5889,3.5934,3.5989,3.603,3.6072,3.6105,3.6151,3.6186,3.6225,3.6263,3.6306,3.6321,3.6341,3.6362,3.6403,3.6416,3.6403,3.6454,3.6455,3.644,3.6437,3.6426,3.6436,3.6442,3.6442,3.6442,0,3.5839,3.5888,3.5947,3.6013,3.6031,3.6061,3.6115,3.6151,3.6203,3.6227,3.6263,3.6295,3.6335,3.6342,3.6397,3.6387,3.641,3.6433,3.6435,3.6442,3.6449,3.6444,3.6441,3.6442,3.6446,3.6446,3.6446,0,3.5815,3.5894,3.594,3.5966,3.6044,3.6064,3.6097,3.6149,3.6178,3.6224,3.6244,3.6292,3.6319,3.6355,3.6398,3.64,3.6449,3.646,3.6469,3.6467,3.6478,3.6477,3.6478,3.6492,3.6492,3.6492,3.6492,0,3.5824,3.5859,3.593,3.5959,3.5997,3.6048,3.6084,3.612,3.6166,3.62,3.6238,3.6269,3.6324,3.6361,3.6394,3.6434,3.6446,3.6465,3.6474,3.6462,3.646,3.6479,3.6479,3.6492,3.6492,3.6492,3.6492,0,3.5804,3.5854,3.5907,3.5976,3.5994,3.6019,3.6078,3.6105,3.6142,3.6185,3.6197,3.6255,3.63,3.6346,3.6407,3.6429,3.6468,3.6479,3.6451,3.6456,3.6462,3.6461,3.6477,3.6481,3.6491,3.6491,3.649,0,3.5807,3.5835,3.5907,3.5934,3.5966,3.6008,3.6039,3.6089,3.6119,3.6179,3.6199,3.6247,3.6289,3.6359,3.6404,3.645,3.6463,3.6466,3.6471,3.6458,3.6464,3.6462,3.6464,3.6464,3.6463,3.6463,3.6463,0,3.5807,3.583,3.5874,3.5927,3.5963,3.6006,3.605,3.6069,3.6126,3.6158,3.6205,3.6237,3.63,3.6347,3.6398,3.6429,3.6455,3.6461,3.6465,3.6454,3.6437,3.6446,3.6447,3.6461,3.6461,3.6461,3.6461,3.6461,3.5799,3.5826,3.5881,3.5928,3.5966,3.6007,3.6036,3.6077,3.6118,3.6174,3.6199,3.6247,3.6296,3.6368,3.6399,3.6435,3.6442,3.6449,3.6451,3.6451,3.6449,3.643,3.6444,3.6445,3.6445,3.6445,3.6445,0,3.5801,3.5838,3.5881,3.5943,3.5979,3.6002,3.6051,3.608,3.6122,3.6166,3.6207,3.626,3.6306,3.6354,3.6402,3.6422,3.6435,3.6433,3.6432,3.6439,3.644,3.6431,3.6421,3.6421,3.6421,3.6421,3.6421,3.6421,3.5807,3.5852,3.5881,3.5945,3.5982,3.603,3.6056,3.6093,3.6129,3.6188,3.6226,3.6258,3.6304,3.6355,3.6397,3.641,3.6426,3.642,3.6437,3.6437,3.6439,3.644,3.6433,3.6423,3.6423,3.6433,3.6433,3.6433]}]]